| time (UTC) | temp C | wind direction | speed KPH | gust KPH | rain 1hr cm | rain 24hr cm | rain mn cm | humidity % | barometer mb |
| 20260504231943 | 21 | 159 | 9.7 | 17.7 | 0.00 | 0.00 | 0.00 | 43 | 1009.1 |
| 20260504231439 | 21 | 179 | 6.4 | 24.1 | 0.00 | 0.00 | 0.00 | 43 | 1009.2 |
| 20260504230935 | 21 | 171 | 4.8 | 20.9 | 0.00 | 0.00 | 0.00 | 43 | 1009.1 |
| 20260504230432 | 21 | 212 | 9.7 | 33.8 | 0.00 | 0.00 | 0.00 | 41 | 1008.8 |
| 20260504225932 | 21 | 236 | 4.8 | 35.4 | 0.00 | 0.00 | 0.00 | 41 | 1008.8 |
| 20260504225428 | 22 | 183 | 6.4 | 25.7 | 0.00 | 0.00 | 0.00 | 40 | 1008.9 |
| 20260504224925 | 22 | 165 | 9.7 | 32.2 | 0.00 | 0.00 | 0.00 | 40 | 1008.7 |
| 20260504224422 | 22 | 209 | 6.4 | 19.3 | 0.00 | 0.00 | 0.00 | 40 | 1008.8 |
| 20260504223919 | 22 | 150 | 4.8 | 24.1 | 0.00 | 0.00 | 0.00 | 40 | 1009.0 |
| 20260504223414 | 22 | 169 | 9.7 | 16.1 | 0.00 | 0.00 | 0.00 | 39 | 1008.7 |
| 20260504222910 | 23 | 205 | 12.9 | 22.5 | 0.00 | 0.00 | 0.00 | 39 | 1008.6 |
| 20260504222408 | 23 | 209 | 4.8 | 12.9 | 0.00 | 0.00 | 0.00 | 39 | 1008.7 |
| 20260504221906 | 23 | 211 | 9.7 | 27.4 | 0.00 | 0.00 | 0.00 | 39 | 1008.9 |
| 20260504221402 | 23 | 283 | 4.8 | 27.4 | 0.00 | 0.00 | 0.00 | 39 | 1008.8 |
| 20260504220859 | 23 | 158 | 4.8 | 24.1 | 0.00 | 0.00 | 0.00 | 40 | 1009.0 |
| 20260504220350 | 23 | 187 | 8.0 | 19.3 | 0.00 | 0.00 | 0.00 | 38 | 1009.1 |
| 20260504215847 | 23 | 204 | 9.7 | 22.5 | 0.00 | 0.00 | 0.00 | 39 | 1008.7 |
| 20260504215343 | 23 | 206 | 6.4 | 22.5 | 0.00 | 0.00 | 0.00 | 38 | 1008.8 |
| 20260504214839 | 23 | 257 | 12.9 | 25.7 | 0.00 | 0.00 | 0.00 | 39 | 1009.1 |
| 20260504214337 | 23 | 183 | 6.4 | 20.9 | 0.00 | 0.00 | 0.00 | 38 | 1009.0 |
| 20260504213833 | 22 | 186 | 9.7 | 27.4 | 0.00 | 0.00 | 0.00 | 39 | 1009.0 |
| 20260504213329 | 22 | 186 | 17.7 | 27.4 | 0.00 | 0.00 | 0.00 | 39 | 1009.1 |
| 20260504212827 | 22 | 167 | 0.0 | 27.4 | 0.00 | 0.00 | 0.00 | 39 | 1009.0 |
| 20260504212322 | 23 | 185 | 6.4 | 35.4 | 0.00 | 0.00 | 0.00 | 39 | 1009.2 |
| 20260504211821 | 23 | 214 | 4.8 | 30.6 | 0.00 | 0.00 | 0.00 | 38 | 1009.3 |
| 20260504211316 | 23 | 174 | 11.3 | 30.6 | 0.00 | 0.00 | 0.00 | 38 | 1009.2 |
| 20260504210814 | 23 | 165 | 8.0 | 24.1 | 0.00 | 0.00 | 0.00 | 38 | 1009.0 |
| 20260504210311 | 23 | 122 | 4.8 | 17.7 | 0.00 | 0.00 | 0.00 | 38 | 1009.4 |
| 20260504205809 | 23 | 243 | 8.0 | 27.4 | 0.00 | 0.00 | 0.00 | 39 | 1009.3 |
| 20260504205306 | 23 | 196 | 8.0 | 29.0 | 0.00 | 0.00 | 0.00 | 38 | 1009.3 |
| 20260504204804 | 23 | 206 | 16.1 | 20.9 | 0.00 | 0.00 | 0.00 | 39 | 1009.3 |
| 20260504204303 | 23 | 225 | 6.4 | 19.3 | 0.00 | 0.00 | 0.00 | 39 | 1009.5 |
| 20260504203802 | 23 | 227 | 4.8 | 16.1 | 0.00 | 0.00 | 0.00 | 40 | 1009.5 |
| 20260504203258 | 23 | 194 | 12.9 | 24.1 | 0.00 | 0.00 | 0.00 | 38 | 1009.7 |
| 20260504202753 | 23 | 180 | 14.5 | 20.9 | 0.00 | 0.00 | 0.00 | 39 | 1009.6 |
| 20260504202250 | 23 | 159 | 8.0 | 33.8 | 0.00 | 0.00 | 0.00 | 40 | 1009.5 |
| 20260504201747 | 22 | 147 | 8.0 | 22.5 | 0.00 | 0.00 | 0.00 | 41 | 1009.6 |
| 20260504201244 | 22 | 149 | 9.7 | 22.5 | 0.00 | 0.00 | 0.00 | 40 | 1009.8 |
| 20260504200742 | 23 | 160 | 9.7 | 17.7 | 0.00 | 0.00 | 0.00 | 40 | 1009.8 |
| 20260504200238 | 23 | 211 | 4.8 | 19.3 | 0.00 | 0.00 | 0.00 | 39 | 1010.1 |
| 20260504195735 | 22 | 85 | 3.2 | 24.1 | 0.00 | 0.00 | 0.00 | 39 | 1009.9 |
| 20260504195230 | 23 | 79 | 9.7 | 14.5 | 0.00 | 0.00 | 0.00 | 40 | 1010.1 |
| 20260504194728 | 23 | 139 | 6.4 | 30.6 | 0.00 | 0.00 | 0.00 | 40 | 1010.1 |
| 20260504194224 | 23 | 225 | 6.4 | 17.7 | 0.00 | 0.00 | 0.00 | 40 | 1010.2 |
| 20260504193720 | 23 | 214 | 8.0 | 20.9 | 0.00 | 0.00 | 0.00 | 39 | 1010.4 |
| 20260504193218 | 23 | 152 | 8.0 | 20.9 | 0.00 | 0.00 | 0.00 | 40 | 1010.2 |
| 20260504192716 | 23 | 173 | 8.0 | 19.3 | 0.00 | 0.00 | 0.00 | 40 | 1010.5 |
| 20260504192214 | 23 | 319 | 4.8 | 19.3 | 0.00 | 0.00 | 0.00 | 40 | 1010.5 |
| 20260504191712 | 23 | 100 | 12.9 | 27.4 | 0.00 | 0.00 | 0.00 | 40 | 1010.6 |
| 20260504191209 | 23 | 212 | 20.9 | 43.5 | 0.00 | 0.00 | 0.00 | 38 | 1010.8 |
| 20260504190704 | 22 | 167 | 4.8 | 19.3 | 0.00 | 0.00 | 0.00 | 40 | 1010.6 |
| 20260504190201 | 22 | 139 | 9.7 | 51.5 | 0.00 | 0.00 | 0.00 | 41 | 1010.9 |
| 20260504185657 | 23 | 29 | 4.8 | 17.7 | 0.00 | 0.00 | 0.00 | 40 | 1010.8 |
| 20260504185153 | 22 | 185 | 6.4 | 33.8 | 0.00 | 0.00 | 0.00 | 40 | 1010.9 |
| 20260504184650 | 23 | 141 | 3.2 | 27.4 | 0.00 | 0.00 | 0.00 | 41 | 1010.9 |
| 20260504184145 | 22 | 169 | 14.5 | 22.5 | 0.00 | 0.00 | 0.00 | 40 | 1010.8 |
| 20260504183642 | 22 | 152 | 11.3 | 22.5 | 0.00 | 0.00 | 0.00 | 39 | 1010.8 |
| 20260504183139 | 22 | 200 | 8.0 | 19.3 | 0.00 | 0.00 | 0.00 | 41 | 1011.1 |
| 20260504182637 | 22 | 213 | 4.8 | 40.2 | 0.00 | 0.00 | 0.00 | 40 | 1010.9 |
| 20260504182134 | 22 | 187 | 17.7 | 33.8 | 0.00 | 0.00 | 0.00 | 40 | 1011.2 |
| 20260504181632 | 21 | 180 | 6.4 | 30.6 | 0.00 | 0.00 | 0.00 | 40 | 1011.2 |
| 20260504181129 | 22 | 1 | 11.3 | 30.6 | 0.00 | 0.00 | 0.00 | 41 | 1011.2 |
| 20260504180628 | 21 | 275 | 9.7 | 35.4 | 0.00 | 0.00 | 0.00 | 40 | 1011.2 |
| 20260504180126 | 21 | 61 | 8.0 | 27.4 | 0.00 | 0.00 | 0.00 | 43 | 1011.2 |
| 20260504175623 | 21 | 174 | 9.7 | 24.1 | 0.00 | 0.00 | 0.00 | 41 | 1011.2 |
| 20260504175120 | 21 | 200 | 29.0 | 29.0 | 0.00 | 0.00 | 0.00 | 41 | 1011.2 |
| 20260504174618 | 22 | 208 | 12.9 | 35.4 | 0.00 | 0.00 | 0.00 | 41 | 1011.5 |
| 20260504174114 | 21 | 210 | 24.1 | 27.4 | 0.00 | 0.00 | 0.00 | 42 | 1011.5 |
| 20260504173611 | 20 | 176 | 8.0 | 29.0 | 0.00 | 0.00 | 0.00 | 43 | 1011.5 |
| 20260504173109 | 21 | 167 | 8.0 | 41.8 | 0.00 | 0.00 | 0.00 | 42 | 1011.4 |
| 20260504172605 | 21 | 29 | 6.4 | 20.9 | 0.00 | 0.00 | 0.00 | 43 | 1011.7 |
| 20260504172102 | 21 | 203 | 22.5 | 27.4 | 0.00 | 0.00 | 0.00 | 42 | 1011.7 |
| 20260504171558 | 21 | 268 | 9.7 | 38.6 | 0.00 | 0.00 | 0.00 | 42 | 1011.8 |
| 20260504171056 | 20 | 258 | 9.7 | 30.6 | 0.00 | 0.00 | 0.00 | 42 | 1011.9 |
| 20260504170551 | 20 | 54 | 8.0 | 27.4 | 0.00 | 0.00 | 0.00 | 43 | 1012.0 |
| 20260504150935 | 17 | 32 | 4.8 | 24.1 | 0.00 | 0.00 | 0.00 | 42 | 1013.4 |
| 20260504150432 | 17 | 60 | 9.7 | 22.5 | 0.00 | 0.00 | 0.00 | 42 | 1013.3 |
| 20260504140858 | 16 | 106 | 8.0 | 24.1 | 0.00 | 0.00 | 0.00 | 46 | 1013.8 |
| 20260504140354 | 15 | 137 | 4.8 | 27.4 | 0.00 | 0.00 | 0.00 | 45 | 1014.1 |
| 20260504130319 | 11 | 214 | 3.2 | 12.9 | 0.00 | 0.00 | 0.00 | 58 | 1014.7 |
| 20260504120238 | 8 | 128 | 4.8 | 6.4 | 0.00 | 0.00 | 0.00 | 70 | 1014.8 |
| 20260504110705 | 5 | 128 | 1.6 | 3.2 | 0.00 | 0.00 | 0.00 | 84 | 1015.1 |
| 20260504110201 | 4 | 47 | 1.6 | 3.2 | 0.00 | 0.00 | 0.00 | 87 | 1014.8 |
| 20260504100125 | 1 | 75 | 0.0 | 4.8 | 0.00 | 0.00 | 0.00 | 94 | 1014.5 |
| 20260504081518 | 2 | 46 | 0.0 | 3.2 | 0.00 | 0.00 | 0.00 | 89 | 1014.8 |
| 20260504081013 | 2 | 23 | 0.0 | 4.8 | 0.00 | 0.00 | 0.00 | 89 | 1014.8 |
| 20260504080509 | 2 | 345 | 3.2 | 3.2 | 0.00 | 0.00 | 0.00 | 90 | 1014.7 |
| 20260504050317 | 5 | 27 | 0.0 | 3.2 | 0.00 | 0.00 | 0.00 | 81 | 1014.7 |
| 20260504045814 | 5 | 89 | 0.0 | 3.2 | 0.00 | 0.00 | 0.00 | 79 | 1014.8 |
| 20260504045314 | 6 | 44 | 1.6 | 3.2 | 0.00 | 0.00 | 0.00 | 78 | 1014.9 |
| 20260504044812 | 6 | 53 | 1.6 | 3.2 | 0.00 | 0.00 | 0.00 | 75 | 1014.6 |
| 20260504044309 | 6 | 15 | 0.0 | 3.2 | 0.00 | 0.00 | 0.00 | 74 | 1014.7 |
| 20260504043806 | 6 | 288 | 0.0 | 4.8 | 0.00 | 0.00 | 0.00 | 74 | 1014.7 |
| 20260504043303 | 6 | 328 | 0.0 | 4.8 | 0.00 | 0.00 | 0.00 | 73 | 1014.5 |
| 20260504042801 | 6 | 173 | 0.0 | 3.2 | 0.00 | 0.00 | 0.00 | 74 | 1014.5 |
| 20260504042257 | 6 | 58 | 0.0 | 1.6 | 0.00 | 0.00 | 0.00 | 73 | 1014.4 |
| 20260504041753 | 6 | 39 | 0.0 | 3.2 | 0.00 | 0.00 | 0.00 | 71 | 1014.5 |
| 20260504041249 | 7 | 89 | 1.6 | 4.8 | 0.00 | 0.00 | 0.00 | 71 | 1014.4 |
| 20260504040745 | 7 | 142 | 0.0 | 3.2 | 0.00 | 0.00 | 0.00 | 69 | 1014.5 |
| 20260504040243 | 7 | 103 | 0.0 | 4.8 | 0.00 | 0.00 | 0.00 | 66 | 1014.4 |
| 20260504035739 | 7 | 24 | 1.6 | 3.2 | 0.00 | 0.00 | 0.00 | 65 | 1014.3 |
| 20260504035236 | 8 | 185 | 1.6 | 11.3 | 0.00 | 0.00 | 0.00 | 65 | 1014.4 |
| 20260504034734 | 8 | 10 | 0.0 | 4.8 | 0.00 | 0.00 | 0.00 | 64 | 1014.3 |
| 20260504034231 | 8 | 211 | 1.6 | 4.8 | 0.00 | 0.00 | 0.00 | 65 | 1014.4 |
| 20260504033729 | 7 | 30 | 1.6 | 6.4 | 0.00 | 0.00 | 0.00 | 66 | 1014.4 |
| 20260504033226 | 7 | 143 | 3.2 | 4.8 | 0.00 | 0.00 | 0.00 | 67 | 1014.3 |
| 20260504032723 | 7 | 269 | 0.0 | 4.8 | 0.00 | 0.00 | 0.00 | 66 | 1014.3 |
| 20260504032220 | 7 | 335 | 0.0 | 4.8 | 0.00 | 0.00 | 0.00 | 66 | 1014.2 |
| 20260504031716 | 7 | 125 | 0.0 | 4.8 | 0.00 | 0.00 | 0.00 | 67 | 1014.5 |
| 20260504031214 | 7 | 239 | 0.0 | 6.4 | 0.00 | 0.00 | 0.00 | 68 | 1014.5 |
| 20260504030709 | 7 | 323 | 1.6 | 4.8 | 0.00 | 0.00 | 0.00 | 71 | 1014.3 |
| 20260504030207 | 6 | 196 | 3.2 | 4.8 | 0.00 | 0.00 | 0.00 | 73 | 1014.2 |
| 20260504025703 | 6 | 53 | 0.0 | 3.2 | 0.00 | 0.00 | 0.00 | 72 | 1014.4 |
| 20260504025200 | 6 | 304 | 0.0 | 4.8 | 0.00 | 0.00 | 0.00 | 74 | 1014.3 |
| 20260504024657 | 6 | 197 | 0.0 | 3.2 | 0.00 | 0.00 | 0.00 | 74 | 1014.2 |
| 20260504024153 | 6 | 204 | 1.6 | 4.8 | 0.00 | 0.00 | 0.00 | 73 | 1014.3 |
| 20260504023650 | 6 | 352 | 0.0 | 3.2 | 0.00 | 0.00 | 0.00 | 75 | 1014.2 |
| 20260504023146 | 6 | 152 | 0.0 | 3.2 | 0.00 | 0.00 | 0.00 | 75 | 1014.2 |
| 20260504022643 | 6 | 1 | 1.6 | 3.2 | 0.00 | 0.00 | 0.00 | 75 | 1014.2 |
| 20260504022138 | 6 | 44 | 1.6 | 3.2 | 0.00 | 0.00 | 0.00 | 73 | 1014.3 |
| 20260504021637 | 6 | 60 | 0.0 | 3.2 | 0.00 | 0.00 | 0.00 | 74 | 1014.3 |
| 20260504021133 | 7 | 336 | 0.0 | 3.2 | 0.00 | 0.00 | 0.00 | 71 | 1014.2 |
| 20260504020630 | 6 | 114 | 0.0 | 4.8 | 0.00 | 0.00 | 0.00 | 73 | 1014.2 |
| 20260504020126 | 7 | 28 | 3.2 | 3.2 | 0.00 | 0.00 | 0.00 | 73 | 1014.3 |
| 20260504015623 | 7 | 246 | 1.6 | 3.2 | 0.00 | 0.00 | 0.00 | 71 | 1014.2 |
| 20260504015119 | 6 | 144 | 0.0 | 3.2 | 0.00 | 0.00 | 0.00 | 73 | 1014.1 |
| 20260504014615 | 7 | 45 | 3.2 | 4.8 | 0.00 | 0.00 | 0.00 | 73 | 1014.2 |
| 20260504014113 | 7 | 166 | 0.0 | 4.8 | 0.00 | 0.00 | 0.00 | 73 | 1014.2 |
| 20260504013610 | 7 | 135 | 0.0 | 3.2 | 0.00 | 0.00 | 0.00 | 72 | 1014.1 |
| 20260504013107 | 7 | 62 | 0.0 | 3.2 | 0.00 | 0.00 | 0.00 | 72 | 1014.2 |
| 20260504012604 | 7 | 89 | 0.0 | 4.8 | 0.00 | 0.00 | 0.00 | 70 | 1014.1 |
| 20260504012102 | 7 | 165 | 0.0 | 1.6 | 0.00 | 0.00 | 0.00 | 70 | 1013.9 |
| 20260504011559 | 7 | 218 | 0.0 | 3.2 | 0.00 | 0.00 | 0.00 | 69 | 1013.9 |
| 20260504011055 | 8 | 334 | 3.2 | 4.8 | 0.00 | 0.00 | 0.00 | 66 | 1013.7 |
| 20260504010550 | 8 | 345 | 1.6 | 6.4 | 0.00 | 0.00 | 0.00 | 63 | 1013.8 |
| 20260504010047 | 8 | 18 | 3.2 | 4.8 | 0.00 | 0.00 | 0.00 | 65 | 1013.7 |
| 20260504005543 | 9 | 269 | 0.0 | 4.8 | 0.00 | 0.00 | 0.00 | 60 | 1013.6 |
| 20260504005041 | 10 | 315 | 3.2 | 4.8 | 0.00 | 0.00 | 0.00 | 57 | 1013.8 |
| 20260504004539 | 10 | 49 | 1.6 | 3.2 | 0.00 | 0.00 | 0.00 | 60 | 1013.7 |
| 20260504004036 | 10 | 64 | 1.6 | 3.2 | 0.00 | 0.00 | 0.00 | 55 | 1013.7 |
| 20260504003532 | 10 | 112 | 0.0 | 3.2 | 0.00 | 0.00 | 0.00 | 54 | 1013.8 |
| 20260504003029 | 10 | 70 | 0.0 | 4.8 | 0.00 | 0.00 | 0.00 | 54 | 1013.6 |
| 20260504002525 | 11 | 53 | 3.2 | 3.2 | 0.00 | 0.00 | 0.00 | 53 | 1013.4 |
| 20260504002023 | 11 | 5 | 4.8 | 4.8 | 0.00 | 0.00 | 0.00 | 50 | 1013.5 |
| 20260504001521 | 11 | 359 | 1.6 | 6.4 | 0.00 | 0.00 | 0.00 | 49 | 1013.1 |
| 20260504001016 | 11 | 77 | 0.0 | 4.8 | 0.00 | 0.00 | 0.00 | 51 | 1013.4 |
| 20260504000514 | 12 | 331 | 3.2 | 4.8 | 0.00 | 0.00 | 0.00 | 46 | 1013.3 |
| 20260504000011 | 12 | 96 | 3.2 | 6.4 | 0.00 | 0.00 | 0.00 | 47 | 1013.3 |
| 20260503235509 | 12 | 40 | 0.0 | 8.0 | 0.00 | 0.00 | 0.00 | 46 | 1013.3 |
| 20260503235006 | 13 | 66 | 3.2 | 6.4 | 0.00 | 0.00 | 0.00 | 44 | 1013.1 |
| 20260503234503 | 13 | 128 | 1.6 | 9.7 | 0.00 | 0.00 | 0.00 | 43 | 1013.2 |
| 20260503234002 | 13 | 182 | 4.8 | 11.3 | 0.00 | 0.00 | 0.00 | 43 | 1013.2 |
| 20260503233457 | 13 | 356 | 3.2 | 8.0 | 0.00 | 0.00 | 0.00 | 44 | 1013.1 |
| 20260503232954 | 13 | 51 | 3.2 | 9.7 | 0.00 | 0.00 | 0.00 | 43 | 1013.0 |
| 20260503232451 | 13 | 197 | 4.8 | 8.0 | 0.00 | 0.00 | 0.00 | 41 | 1012.8 |